When you browse on this site, cookies collect data to enhance your experience and personalize the content and advertising you see.
Visit our Privacy Policy to learn more. By continuing to use the site, you agree to this use of cookies and data.
  • In Hungary
  • List of Countries
  • For 7 days
  • Water Temperature
  • Satellite Maps
  • Weather Map
  • News
  • Weather Widgets
  • user-avatar
    Login

    Hourly Weather Civita Castellana

    Today, 20 January, Sunday

    Time Temperature Precipitation Wind Pressure Humidity
    00:00 +5°C° 0 mm 1 mps 746 mmHg 90%
    01:00 +5°C° 0 mm 1 mps 746 mmHg 91%
    02:00 +5°C° 0 mm 1 mps 746 mmHg 91%
    03:00 +5°C° 0 mm 1 mps 746 mmHg 90%
    04:00 +5°C° 0 mm 1 mps 746 mmHg 90%
    05:00 +5°C° 0.1 mm 1 mps 746 mmHg 89%
    06:00 +5°C° 0.1 mm 1 mps 746 mmHg 88%
    07:00 +5°C° 0.1 mm 1 mps 745 mmHg 87%
    08:00 +6°C° 0.2 mm 1 mps 746 mmHg 85%
    09:00 +7°C° 0.2 mm 1 mps 746 mmHg 83%
    10:00 +7°C° 0.2 mm 0 mps 746 mmHg 80%
    11:00 +9°C° 0.3 mm 1 mps 746 mmHg 78%
    12:00 +9°C° 0.3 mm 1 mps 746 mmHg 76%
    13:00 +10°C° 0.3 mm 1 mps 746 mmHg 73%
    14:00 +9°C° 0.3 mm 1 mps 745 mmHg 77%
    15:00 +9°C° 0.3 mm 1 mps 745 mmHg 80%
    16:00 +9°C° 0.3 mm 1 mps 745 mmHg 83%
    17:00 +8°C° 0.1 mm 1 mps 745 mmHg 84%
    18:00 +8°C° 0.1 mm 1 mps 745 mmHg 84%
    19:00 +8°C° 0.1 mm 1 mps 745 mmHg 85%
    20:00 +8°C° 0.2 mm 1 mps 745 mmHg 85%
    21:00 +8°C° 0.2 mm 1 mps 746 mmHg 85%
    22:00 +8°C° 0.2 mm 1 mps 746 mmHg 86%
    23:00 +7°C° 0.1 mm 1 mps 746 mmHg 86%

    Tomorrow, 21 January, Monday

    Time Temperature Precipitation Wind Pressure Humidity
    00:00 +7°C° 0.1 mm 1 mps 746 mmHg 87%
    01:00 +7°C° 0.1 mm 1 mps 746 mmHg 87%
    02:00 +7°C° 0.1 mm 1 mps 746 mmHg 87%
    03:00 +6°C° 0.1 mm 1 mps 746 mmHg 88%
    04:00 +6°C° 0.1 mm 1 mps 746 mmHg 88%
    05:00 +6°C° 0 mm 1 mps 746 mmHg 88%
    06:00 +5°C° 0 mm 1 mps 746 mmHg 88%
    07:00 +5°C° 0 mm 1 mps 746 mmHg 88%
    08:00 +6°C° 0.1 mm 1 mps 746 mmHg 85%
    09:00 +7°C° 0.1 mm 1 mps 747 mmHg 82%
    10:00 +8°C° 0.1 mm 1 mps 747 mmHg 79%
    11:00 +9°C° 0.1 mm 1 mps 747 mmHg 76%
    12:00 +10°C° 0.1 mm 1 mps 747 mmHg 74%
    13:00 +11°C° 0.1 mm 1 mps 746 mmHg 71%
    14:00 +11°C° 0.2 mm 1 mps 746 mmHg 74%
    15:00 +10°C° 0.2 mm 1 mps 746 mmHg 77%
    16:00 +10°C° 0.2 mm 1 mps 746 mmHg 80%
    17:00 +9°C° 0.3 mm 1 mps 746 mmHg 83%
    18:00 +9°C° 0.3 mm 1 mps 746 mmHg 85%
    19:00 +8°C° 0.3 mm 1 mps 746 mmHg 88%
    20:00 +7°C° 0.3 mm 2 mps 746 mmHg 88%
    21:00 +6°C° 0.3 mm 2 mps 746 mmHg 88%
    22:00 +6°C° 0.3 mm 2 mps 746 mmHg 88%
    23:00 +6°C° 0.2 mm 2 mps 746 mmHg 88%

    Day after tomorrow, 22 January, Tuesday

    Time Temperature Precipitation Wind Pressure Humidity
    00:00 +6°C° 0.2 mm 2 mps 746 mmHg 89%
    01:00 +6°C° 0.2 mm 2 mps 745 mmHg 89%
    02:00 +5°C° 0 mm 2 mps 745 mmHg 89%
    03:00 +5°C° 0 mm 2 mps 745 mmHg 89%
    04:00 +4°C° 0 mm 2 mps 744 mmHg 89%
    05:00 +4°C° 0 mm 2 mps 744 mmHg 89%
    06:00 +4°C° 0 mm 2 mps 743 mmHg 89%
    07:00 +3°C° 0 mm 2 mps 743 mmHg 89%
    08:00 +4°C° 0 mm 2 mps 743 mmHg 86%
    09:00 +5°C° 0 mm 2 mps 743 mmHg 83%
    10:00 +7°C° 0 mm 1 mps 743 mmHg 80%
    11:00 +8°C° 0 mm 1 mps 742 mmHg 75%
    12:00 +9°C° 0 mm 1 mps 742 mmHg 71%
    13:00 +11°C° 0 mm 1 mps 741 mmHg 67%
    14:00 +10°C° 0 mm 1 mps 741 mmHg 69%
    15:00 +10°C° 0 mm 1 mps 740 mmHg 71%
    16:00 +10°C° 0 mm 1 mps 739 mmHg 73%
    17:00 +8°C° 0 mm 1 mps 739 mmHg 79%
    18:00 +7°C° 0 mm 1 mps 739 mmHg 84%
    19:00 +5°C° 0 mm 1 mps 738 mmHg 90%
    20:00 +5°C° 0 mm 1 mps 738 mmHg 90%
    21:00 +4°C° 0 mm 1 mps 738 mmHg 91%
    22:00 +4°C° 0 mm 1 mps 738 mmHg 92%
    23:00 +4°C° 0 mm 1 mps 737 mmHg 93%

    23 January, Wednesday

    Time Temperature Precipitation Wind Pressure Humidity
    00:00 +2°C° 0 mm 0 mps 737 mmHg 93%
    01:00 +2°C° 0 mm 0 mps 736 mmHg 94%
    02:00 +2°C° 0 mm 0 mps 736 mmHg 94%
    03:00 +2°C° 0 mm 1 mps 735 mmHg 94%
    04:00 +2°C° 0 mm 1 mps 735 mmHg 94%
    05:00 +2°C° 0 mm 1 mps 734 mmHg 94%
    06:00 +2°C° 0 mm 1 mps 734 mmHg 93%
    07:00 +2°C° 0 mm 1 mps 734 mmHg 93%
    08:00 +3°C° 0 mm 1 mps 734 mmHg 84%
    09:00 +5°C° 0 mm 1 mps 734 mmHg 75%
    10:00 +6°C° 0 mm 2 mps 734 mmHg 66%
    11:00 +7°C° 0 mm 2 mps 734 mmHg 63%
    12:00 +8°C° 0 mm 3 mps 733 mmHg 60%
    13:00 +10°C° 0 mm 4 mps 733 mmHg 57%
    14:00 +8°C° 0.2 mm 4 mps 732 mmHg 60%
    15:00 +8°C° 0.2 mm 4 mps 732 mmHg 64%
    16:00 +7°C° 0.2 mm 4 mps 731 mmHg 67%
    17:00 +7°C° 0 mm 3 mps 732 mmHg 70%
    18:00 +5°C° 0 mm 3 mps 732 mmHg 72%
    19:00 +4°C° 0 mm 3 mps 732 mmHg 75%
    20:00 +4°C° 0 mm 3 mps 732 mmHg 76%
    21:00 +5°C° 0 mm 2 mps 733 mmHg 77%
    22:00 +5°C° 0 mm 2 mps 733 mmHg 78%
    23:00 +5°C° 0.1 mm 2 mps 733 mmHg 79%

    24 January, Thursday

    Time Temperature Precipitation Wind Pressure Humidity
    00:00 +5°C° 0.1 mm 2 mps 733 mmHg 80%
    01:00 +5°C° 0.1 mm 2 mps 733 mmHg 81%
    02:00 +4°C° 0 mm 2 mps 732 mmHg 83%
    03:00 +4°C° 0 mm 2 mps 732 mmHg 85%
    04:00 +4°C° 0 mm 2 mps 732 mmHg 87%
    05:00 +3°C° 0 mm 3 mps 732 mmHg 86%
    06:00 +3°C° 0 mm 3 mps 732 mmHg 84%
    07:00 +4°C° 0 mm 3 mps 732 mmHg 83%
    08:00 +5°C° 0 mm 3 mps 732 mmHg 78%
    09:00 +7°C° 0 mm 4 mps 733 mmHg 73%
    10:00 +8°C° 0 mm 4 mps 733 mmHg 68%
    11:00 +9°C° 0 mm 5 mps 733 mmHg 64%
    12:00 +9°C° 0 mm 5 mps 733 mmHg 59%
    13:00 +10°C° 0 mm 6 mps 733 mmHg 55%
    14:00 +9°C° 0 mm 6 mps 734 mmHg 56%
    15:00 +9°C° 0 mm 6 mps 734 mmHg 57%
    16:00 +8°C° 0 mm 5 mps 734 mmHg 59%
    17:00 +7°C° 0 mm 5 mps 734 mmHg 63%
    18:00 +6°C° 0 mm 5 mps 734 mmHg 67%
    19:00 +5°C° 0 mm 5 mps 735 mmHg 70%
    20:00 +4°C° 0 mm 4 mps 735 mmHg 72%
    21:00 +4°C° 0 mm 4 mps 735 mmHg 74%
    22:00 +3°C° 0 mm 4 mps 736 mmHg 76%
    23:00 +3°C° 0 mm 4 mps 736 mmHg 77%

    25 January, Friday

    Time Temperature Precipitation Wind Pressure Humidity
    00:00 +3°C° 0 mm 4 mps 736 mmHg 77%
    01:00 +3°C° 0 mm 4 mps 736 mmHg 77%
    02:00 +3°C° 0 mm 4 mps 736 mmHg 77%
    03:00 +3°C° 0 mm 4 mps 736 mmHg 77%
    04:00 +3°C° 0 mm 4 mps 736 mmHg 77%
    05:00 +3°C° 0 mm 4 mps 737 mmHg 77%
    06:00 +3°C° 0 mm 4 mps 737 mmHg 77%
    07:00 +3°C° 0 mm 4 mps 737 mmHg 77%
    08:00 +4°C° 0 mm 4 mps 738 mmHg 73%
    09:00 +5°C° 0 mm 4 mps 739 mmHg 68%
    10:00 +6°C° 0 mm 4 mps 739 mmHg 64%
    11:00 +7°C° 0 mm 4 mps 739 mmHg 61%
    12:00 +8°C° 0 mm 4 mps 740 mmHg 57%
    13:00 +10°C° 0 mm 4 mps 740 mmHg 54%
    14:00 +10°C° 0 mm 4 mps 740 mmHg 56%
    15:00 +8°C° 0 mm 4 mps 741 mmHg 57%
    16:00 +8°C° 0 mm 4 mps 741 mmHg 58%
    17:00 +6°C° 0 mm 4 mps 742 mmHg 62%
    18:00 +5°C° 0 mm 4 mps 742 mmHg 65%
    19:00 +4°C° 0 mm 4 mps 743 mmHg 69%
    20:00 +4°C° 0 mm 4 mps 743 mmHg 70%
    21:00 +4°C° 0 mm 4 mps 744 mmHg 71%
    22:00 +3°C° 0 mm 4 mps 745 mmHg 72%
    23:00 +3°C° 0 mm 4 mps 745 mmHg 72%
    Show more